Volver al catálogo

DELTA 4 R/B

ActivoMEO
NORAD 57100·ROCKET BODY·🇺🇸 United States

Lanzado Jun 22, 2023 desde Cape Canaveral Space Force Station

Loading…

Próximos Pases (próximas 24 horas)

TLE

ActualizadoSource: Space-Track

Época: Sep 13, 2026, 13:25 UTC

1 57100U 23089B   26256.55930172 -.00000225  00000-0  00000-0 0  9998
2 57100   2.3425 174.5311 0178009  83.6447 278.2980  0.96427099  8303

Sigue DELTA 4 R/B en tiempo real con AllMySat

Download on the App Store